Weather History for Thermopolis, WY

Change the Weather History Date:

Saturday, January 4, 2014

  Actual Average (KWRL) Record (KWRL)
Temperature  
Mean Temperature 14 °F 16 °F  
Max Temperature 14 °F 30 °F 49 °F (1965)
Min Temperature 14 °F 3 °F -29 °F (1973)
Degree Days  
Heating Degree Days 51 49  
Month to date heating degree days 196  
Since 1 July heating degree days 3559  
Cooling Degree Days 0 0  
Month to date cooling degree days 0  
Year to date cooling degree days 0  
Moisture  
Dew Point 11 °F    
Average Humidity 90    
Maximum Humidity 93    
Minimum Humidity 86    
Precipitation  
Precipitation 0.00 in 0.01 in 0.19 in (1963)
Month to date precipitation 0.03  
Year to date precipitation 0.03  
Sea Level Pressure  
Sea Level Pressure 29.91 in    
Wind  
Wind Speed 24 mph (WNW)    
Max Wind Speed 38 mph    
Max Gust Speed 40 mph    
Visibility 5 miles    
Events Fog    
T = Trace of Precipitation, MM = Missing Value Source: NWS Daily Summary

Daily Weather History Graph

Daily Weather History Graph

Search for Another Location

Airport:

Trip Planner

Search our weather history database for the weather conditions in past years. The results will help you decide how hot, cold, wet, or windy it might be!

Date:

Astronomy

Jan. 04, 2014 Rise Set
Actual Time 7:45 AM MST 4:50 PM MST
Civil Twilight 7:13 AM MST 5:22 PM MST
Nautical Twilight 6:37 AM MST 5:58 PM MST
Astronomical Twilight 6:02 AM MST 6:33 PM MST
Moon 9:46 AM MST (1/4) 9:22 PM MST (1/4)
Length of Visible Light 10h 09m
Length of Day
9h 04m
Waxing Crescent, 16% of the Moon is Illuminated
Jan 4
Waxing Crescent
Jan 7
First Quarter
Jan 15
Full
Jan 23
Last Quarter
Jan 30
New

Hourly Weather History & Observations

Time (MST) Temp. Windchill Dew Point Humidity Pressure Visibility Wind Dir Wind Speed Gust Speed Precip Events Conditions
12:15 AM 14.0 °F -7.7 °F 12.2 °F 93% 29.81 in - NW 33.4 mph - N/A   Overcast
12:35 AM 14.0 °F -8.5 °F 12.2 °F 93% 29.80 in - WNW 36.8 mph - N/A   Overcast
12:55 AM 14.0 °F -8.8 °F 12.2 °F 93% 29.80 in - WNW 38.0 mph - N/A   Overcast
1:15 AM 14.0 °F -8.3 °F 12.2 °F 93% 29.80 in 10.0 mi WNW 35.7 mph - N/A   Overcast
1:35 AM 14.0 °F -8.5 °F 12.2 °F 93% 29.80 in - WNW 36.8 mph 40.3 mph N/A   Unknown
1:55 AM 14.0 °F -7.1 °F 10.4 °F 86% 29.82 in - NW 31.1 mph - N/A   Unknown
2:15 AM 14.0 °F -6.5 °F 10.4 °F 86% 29.82 in - NW 28.8 mph - N/A   Overcast
2:35 AM 14.0 °F -6.5 °F 10.4 °F 86% 29.83 in - NW 28.8 mph - N/A   Overcast
2:55 AM 14.0 °F -6.8 °F 10.4 °F 86% 29.83 in - NW 29.9 mph - N/A   Unknown
3:15 AM - - - N/A% 29.83 in - NW 32.2 mph - N/A   Unknown
3:35 AM - - - N/A% 29.83 in - NW 28.8 mph - N/A   Unknown
3:55 AM - - - N/A% 29.84 in - NW 29.9 mph - N/A   Unknown
4:15 AM - - - N/A% 29.85 in - NW 28.8 mph - N/A   Unknown
4:35 AM - - - N/A% 29.84 in - NW 31.1 mph - N/A   Overcast
4:55 AM - - - N/A% 29.84 in - NW 32.2 mph - N/A   Overcast
5:15 AM - - - N/A% 29.84 in - NW 32.2 mph - N/A   Overcast
5:35 AM - - - N/A% 29.84 in - NW 34.5 mph - N/A   Overcast
5:55 AM - - - N/A% 29.84 in - NW 31.1 mph - N/A   Overcast
6:15 AM - - - N/A% 29.85 in - NW 33.4 mph - N/A   Overcast
6:35 AM - - - N/A% 29.86 in - WNW 33.4 mph - N/A   Overcast
6:55 AM - - - N/A% 29.86 in - NW 31.1 mph - N/A   Overcast
7:15 AM - - - N/A% 29.87 in - NW 28.8 mph - N/A   Overcast
7:35 AM - - - N/A% 29.87 in - NW 26.5 mph - N/A   Overcast
7:55 AM - - - N/A% 29.87 in - WNW 27.6 mph - N/A   Overcast
8:15 AM - - - N/A% 29.88 in - WNW 26.5 mph - N/A   Overcast
8:35 AM - - - N/A% 29.90 in - NW 25.3 mph - N/A   Overcast
8:55 AM - - - N/A% 29.91 in - WNW 23.0 mph - N/A   Overcast
9:15 AM - - - N/A% 29.91 in - WNW 19.6 mph - N/A   Overcast
9:35 AM - - - N/A% 29.92 in - WNW 18.4 mph - N/A   Overcast
9:55 AM - - - N/A% 29.93 in - WNW 16.1 mph - N/A   Overcast
10:15 AM - - - N/A% 29.94 in - WNW 16.1 mph - N/A   Unknown
10:35 AM - - - N/A% 29.95 in - WNW 17.3 mph - N/A   Overcast
10:55 AM - - - N/A% 29.96 in - WNW 16.1 mph - N/A   Unknown
11:15 AM - - - N/A% 29.96 in - WNW 15.0 mph - N/A   Unknown
11:35 AM - - - N/A% 29.96 in - WNW 12.7 mph - N/A   Unknown
11:55 AM - - - N/A% 29.95 in - WNW 9.2 mph - N/A   Unknown
12:15 PM - - - N/A% 29.95 in - West 5.8 mph - N/A   Mostly Cloudy
12:35 PM - - - N/A% 29.94 in - SW 3.5 mph - N/A   Unknown
12:55 PM - - - N/A% 29.94 in - WSW 3.5 mph - N/A   Unknown
1:15 PM - - - N/A% 29.93 in - WSW 3.5 mph - N/A   Unknown
1:35 PM - - - N/A% 29.93 in - South 6.9 mph - N/A   Unknown
1:55 PM - - - N/A% 29.94 in - SSE 8.1 mph - N/A   Unknown
2:15 PM - - - N/A% 29.94 in - South 10.4 mph - N/A   Mostly Cloudy
2:35 PM - - - N/A% 29.94 in - South 11.5 mph - N/A   Overcast
2:55 PM - - - N/A% 29.94 in - South 10.4 mph - N/A   Overcast
3:15 PM - - - N/A% 29.95 in - SSE 12.7 mph - N/A   Overcast
3:35 PM - - - N/A% 29.95 in - SE 6.9 mph - N/A   Overcast
3:55 PM - - - N/A% 29.95 in - SE 5.8 mph - N/A   Overcast
4:15 PM - - - N/A% 29.95 in - SE 5.8 mph - N/A   Overcast
4:35 PM - - - N/A% 29.94 in - SE 9.2 mph - N/A   Overcast
4:55 PM - - - N/A% 29.95 in - SE 8.1 mph - N/A   Overcast
5:15 PM - - - N/A% 29.96 in - SSE 9.2 mph 16.1 mph N/A   Overcast
5:35 PM - - - N/A% 29.95 in - SE 9.2 mph - N/A   Overcast
5:55 PM - - - N/A% 29.95 in - SSE 10.4 mph - N/A   Overcast
6:15 PM - - - N/A% 29.96 in - SE 8.1 mph - N/A   Overcast
6:35 PM - - - N/A% 29.97 in - Calm Calm - N/A   Overcast
6:55 PM - - - N/A% 29.97 in - WNW 11.5 mph 16.1 mph N/A   Unknown
7:15 PM - - - N/A% 29.97 in - NNW 20.7 mph - N/A   Overcast
7:35 PM - - - N/A% 29.98 in - NW 20.7 mph - N/A   Unknown
7:55 PM - - - N/A% 29.97 in - NW 21.9 mph - N/A   Overcast
8:15 PM - - - N/A% 29.98 in - NW 20.7 mph - N/A   Overcast
8:35 PM - - - N/A% 29.98 in - WNW 19.6 mph - N/A   Overcast
8:55 PM - - - N/A% 29.98 in - NW 17.3 mph - N/A   Overcast
9:15 PM - - - N/A% 29.98 in - NW 16.1 mph - N/A   Overcast
9:35 PM - - - N/A% 29.98 in 7.0 mi NW 12.7 mph - N/A   Overcast
9:55 PM - - - N/A% 29.98 in 10.0 mi NNW 15.0 mph - N/A   Overcast
10:15 PM - - - N/A% 29.98 in 10.0 mi NNW 15.0 mph - N/A   Overcast
10:35 PM - - - N/A% 29.98 in 2.0 mi NW 16.1 mph - N/A   Overcast
10:55 PM - - - N/A% 29.98 in 0.5 mi WNW 17.3 mph - N/A Fog Fog
11:15 PM - - - N/A% 29.98 in 0.5 mi NNW 12.7 mph - N/A Fog Fog
11:35 PM - - - N/A% 29.98 in 1.0 mi NW 11.5 mph - N/A   Overcast
11:55 PM - - - N/A% 29.98 in 5.0 mi NW 9.2 mph - N/A   Haze